Temperature
25 23 24 24 24 25 25 25 25 25 25 25 24 23 22 22 21 21 21 21 21 21 21 21 21 21 20 20 20 20 19 19 19 19 19 18 18 18 18 18 18 18 18 18
23 24 25 25 25 25 25 25 25 25 25 25 23 23 22 21 21 21 21 21 21 21 21 21 21 21 20 20 20 20 20 19 19 19 19 19 19 18 18 18 18 18 18 18
25 25 25 26 25 25 25 25 25 25 24 24 24 23 22 22 22 22 21 21 21 21 21 21 21 21 21 20 20 20 20 20 19 19 19 19 18 18 18 18 18 18 18 18
24 24 26 26 26 26 25 25 26 25 24 22 23 22 22 21 21 21 21 21 21 21 21 21 21 21 21 21 21 20 20 20 20 19 19 19 19 19 19 19 19 18 18 18
24 25 25 26 26 25 25 25 24 24 23 22 22 22 21 20 20 20 21 21 21 21 22 22 22 22 21 21 21 21 20 20 20 19 19 19 19 19 19 19 18 18 18 18
24 24 25 25 26 26 25 24 22 20 20 22 22 22 21 20 20 20 21 21 22 22 22 22 22 22 21 21 21 21 21 20 20 20 19 19 19 19 19 19 19 18 18 18
24 24 25 25 26 25 23 22 21 22 20 21 21 21 21 22 21 21 21 22 22 22 22 22 22 22 22 21 21 21 21 21 20 20 19 19 19 19 19 19 19 18 18 18
23 23 24 25 25 24 23 22 21 22 21 20 21 21 21 22 22 22 22 22 22 22 22 22 22 22 22 21 21 21 21 21 20 20 20 20 19 19 19 19 19 18 18 18
21 22 24 24 24 24 23 21 20 19 20 20 20 21 21 22 21 21 21 22 22 22 22 22 22 22 22 22 21 21 21 21 21 20 20 20 19 19 19 19 19 18 19 18
21 23 23 23 24 23 22 19 18 19 20 21 21 21 21 22 21 20 20 21 21 22 22 22 21 21 22 21 21 21 21 21 21 20 20 20 20 19 19 19 19 19 19 18
21 22 22 22 23 23 21 20 17 16 18 19 20 21 21 20 20 20 20 21 21 21 21 21 21 21 21 21 21 21 21 21 20 20 20 20 20 19 19 19 19 19 19 19
19 18 19 21 22 22 22 20 18 20 19 17 18 19 21 20 19 20 20 21 21 21 21 21 21 21 21 21 21 21 21 20 20 20 20 20 20 19 19 19 19 19 19 18
19 18 19 21 21 21 21 20 18 16 16 16 18 20 20 19 19 20 20 20 20 21 21 21 21 21 21 21 21 21 20 20 20 20 20 19 19 19 19 19 19 19 19 18
19 17 19 20 20 20 21 20 19 18 17 17 18 19 19 19 18 18 20 20 20 20 20 21 21 20 20 20 20 20 20 20 20 20 20 19 19 19 19 19 19 19 18 18
18 18 19 19 20 20 21 20 20 19 18 18 19 18 19 18 17 18 19 19 19 19 20 20 20 20 20 20 20 20 20 20 19 19 19 19 19 19 19 19 18 18 18 18
16 18 19 20 20 20 20 20 20 20 19 18 19 18 18 18 18 18 18 19 18 19 19 19 20 20 20 20 20 19 19 19 19 19 19 19 19 19 19 18 18 18 18 18
15 17 17 18 19 20 19 19 19 19 18 18 18 18 17 17 17 18 18 18 18 19 19 19 19 19 20 19 19 19 19 19 19 19 18 18 18 18 18 18 18 18 18 17
15 14 14 16 19 19 19 19 19 19 18 18 18 17 17 17 18 18 19 19 19 19 18 18 19 19 19 19 19 19 18 18 18 18 18 18 18 18 18 17 17 17 17 17
13 14 14 14 17 18 18 19 18 18 18 17 17 17 17 17 17 18 19 19 19 19 18 18 18 19 18 18 18 18 18 18 18 17 17 17 17 17 17 17 17 17 17 17
12 13 14 14 17 17 18 19 19 18 18 17 17 16 16 16 16 17 19 19 19 18 18 18 18 18 18 18 18 17 17 17 17 17 17 17 17 17 17 17 16 16 16 16
14 13 14 14 16 16 17 17 18 18 18 17 17 17 16 16 17 18 18 18 18 19 18 18 18 18 18 18 17 17 17 17 17 17 16 16 17 16 16 16 16 16 16 16
14 14 13 13 15 16 17 16 17 16 17 17 17 17 17 17 17 18 18 18 18 18 18 18 18 17 17 17 17 17 17 17 16 16 16 16 16 16 16 16 16 16 16 15
12 13 12 13 14 15 16 16 17 17 17 17 17 17 17 17 17 17 17 17 17 18 17 17 17 17 17 17 17 16 16 16 16 16 16 15 15 15 15 15 15 15 15 15
12 12 12 12 13 14 15 16 16 17 17 17 17 17 17 17 17 17 17 17 17 17 17 17 16 16 16 16 16 16 16 15 15 15 15 15 15 15 14 14 14 14 14 14
12 12 12 12 13 14 15 16 16 16 17 17 17 17 17 17 17 17 16 16 16 16 16 16 16 16 16 16 16 16 15 15 15 15 15 14 14 14 14 14 14 14 14 13
11 12 12 13 13 13 14 16 16 16 16 16 17 17 17 17 16 16 16 16 16 16 16 15 15 15 15 15 15 15 15 15 15 15 14 14 14 14 14 13 13 13 13 13
Wind_Speed
3 4 2 5 6 4 3 3 5 6 3 3 3 3 4 7 7 9 9 9 10 10 8 7 8 8 8 8 8 8 7 6 5 3 2 2 2 1 1 2 4 5 5 5
5 3 6 3 3 2 2 2 4 4 1 2 1 2 2 6 8 9 11 11 11 8 6 7 8 8 10 10 9 8 8 7 6 5 3 2 2 1 1 1 2 4 5 5
4 5 2 2 1 0 2 3 4 3 3 4 3 4 2 2 3 4 7 8 8 11 10 10 10 9 9 10 10 9 8 8 7 6 3 2 2 2 1 0 1 2 5 5
3 4 1 0 2 2 4 5 4 2 2 2 2 2 6 2 3 5 6 8 9 9 9 9 9 9 10 10 9 8 8 8 7 7 6 5 4 3 3 2 2 2 3 4
4 2 1 2 4 4 5 1 2 2 3 2 3 1 7 2 3 8 8 8 9 10 11 12 12 12 10 10 9 9 8 7 7 7 8 6 5 4 2 2 2 2 1 3
4 3 3 5 3 2 2 5 6 6 5 1 2 2 6 3 6 6 7 8 9 10 10 11 10 9 8 8 8 8 8 8 8 8 8 8 7 6 4 3 3 2 2 2
5 5 3 1 1 3 5 6 5 5 5 4 3 2 7 6 6 6 7 8 8 9 9 9 9 9 9 9 9 9 9 9 8 9 9 8 8 7 7 6 5 4 3 3
2 6 4 1 4 4 3 8 7 4 4 5 3 4 7 5 5 3 3 4 6 8 8 9 9 9 9 9 9 9 10 9 9 9 8 7 7 6 5 6 5 6 5 5
6 6 5 2 2 6 4 3 6 7 2 1 5 6 7 4 5 3 1 1 4 6 7 7 6 6 7 8 9 10 9 9 8 9 8 8 8 7 7 6 6 5 5 5
7 3 5 4 4 5 4 8 6 5 4 3 5 4 5 7 7 5 3 2 2 1 3 3 4 5 7 7 7 7 8 9 8 8 8 8 8 9 8 7 7 7 6 5
5 4 4 3 2 2 3 4 5 5 5 5 4 6 5 6 5 4 4 2 1 2 3 3 4 5 5 5 6 6 7 7 7 7 7 8 8 8 7 7 8 7 6 6
4 5 2 5 4 2 4 5 6 4 3 4 4 7 4 3 4 3 3 2 1 1 2 3 4 4 4 4 4 5 6 6 7 7 7 8 7 7 8 8 8 7 7 7
5 6 1 6 5 3 2 2 4 6 5 5 5 7 3 4 3 2 2 2 1 1 1 2 3 3 3 3 3 4 5 6 6 6 8 8 8 8 9 9 8 7 7 7
6 5 6 8 7 4 2 2 4 6 4 5 7 7 7 6 5 5 3 2 1 1 1 1 2 3 3 4 4 4 4 4 5 5 6 7 8 8 9 8 7 7 7 8
5 3 4 5 4 3 4 4 5 5 8 8 8 7 8 5 4 3 2 2 1 1 1 0 1 2 2 3 3 3 3 4 4 5 6 8 7 7 7 7 7 7 7 8
4 3 2 1 2 3 3 4 5 4 4 5 4 6 5 2 0 1 1 1 0 0 0 1 1 2 3 4 4 3 3 3 3 5 6 6 6 6 7 6 6 6 7 6
2 4 3 2 2 2 3 5 5 3 3 5 6 6 2 1 1 2 2 1 1 2 1 1 2 3 3 4 4 4 4 3 3 4 4 5 6 6 7 7 6 6 6 5
5 4 3 1 2 4 7 2 3 3 2 3 4 3 4 3 2 3 3 2 2 2 1 2 2 3 3 3 3 2 2 2 3 3 4 4 4 5 5 5 5 5 4 4
5 7 4 3 3 4 5 2 3 4 3 3 3 2 2 1 2 3 2 1 3 3 2 2 2 2 2 2 2 1 1 2 2 3 3 4 4 4 4 4 4 3 3 3
5 5 5 4 3 6 7 4 2 3 3 3 2 3 2 1 1 5 3 2 2 1 0 1 1 1 1 2 1 1 1 2 3 3 3 2 3 4 4 4 4 3 3 3
3 4 3 3 4 7 5 5 1 3 6 4 4 4 3 4 6 5 3 3 2 0 0 0 1 1 1 1 1 1 1 3 3 2 1 1 2 3 4 4 3 3 3 3
4 3 3 4 3 7 3 1 3 5 4 3 4 4 4 5 5 4 4 3 1 0 1 0 0 1 1 0 1 1 2 2 1 1 0 1 1 2 2 3 3 3 4 4
4 5 5 6 6 5 3 3 4 3 3 3 3 3 3 4 5 4 3 2 2 2 2 1 1 0 1 1 1 2 2 1 0 1 0 0 1 1 1 3 3 3 3 3
2 2 2 2 5 5 6 4 4 3 3 3 3 3 2 4 5 4 3 2 2 2 1 1 1 0 1 1 0 1 1 1 1 1 0 0 0 1 1 2 2 3 3 3
4 1 1 3 5 5 5 5 4 4 4 3 2 2 2 3 4 3 3 3 2 1 1 0 1 1 1 1 1 0 1 2 1 1 1 1 1 1 2 2 1 2 2 4
4 5 4 5 6 4 6 6 5 4 4 4 3 3 2 2 3 3 3 3 3 2 1 1 1 1 1 1 1 1 1 2 3 2 1 1 2 2 2 2 2 3 1 1
Wind_Direction
53 71 222 229 204 206 209 223 261 260 236 162 211 242 213 179 187 196 198 198 202 206 199 187 187 181 178 184 184 187 189 185 165 153 160 163 184 190 187 203 207 201 203 197
39 294 251 223 189 188 216 269 282 298 334 137 131 297 216 189 199 200 199 202 204 200 188 190 189 187 186 188 188 189 191 186 180 179 169 165 156 171 186 196 195 200 199 198
185 248 262 130 82 80 273 215 244 269 7 37 62 343 318 251 208 208 212 210 203 200 196 194 191 194 194 192 190 194 193 189 185 173 146 121 94 80 111 183 211 202 197 200
235 268 243 351 278 169 278 252 221 194 90 317 64 293 298 267 239 226 225 214 205 204 199 196 191 193 199 200 190 187 190 189 183 170 169 168 176 187 199 195 200 196 194 200
251 251 201 250 246 192 235 341 79 101 129 41 18 130 295 337 267 249 236 220 208 202 197 198 199 199 197 196 191 187 183 188 184 180 182 183 191 195 183 171 188 213 220 216
253 262 217 229 242 185 152 60 50 51 70 31 282 163 286 259 241 258 236 225 210 205 201 201 200 193 192 192 188 185 185 195 190 187 188 190 192 188 182 188 202 221 227 229
316 311 291 206 20 16 73 78 26 2 12 262 287 183 254 263 250 237 232 222 208 201 196 196 197 194 194 193 191 188 189 199 196 192 194 196 197 192 196 201 204 210 221 227
213 293 280 237 184 190 147 133 154 199 224 277 332 239 257 278 296 269 228 208 192 197 196 199 199 198 196 194 190 189 193 199 196 195 198 196 194 197 206 207 207 210 216 221
180 253 292 269 220 141 129 149 161 138 155 291 289 291 304 313 337 348 8 158 200 199 196 199 197 193 191 192 194 193 192 197 199 199 196 197 197 201 208 206 205 213 215 218
159 232 298 307 58 38 121 141 98 117 146 250 292 283 267 298 307 317 323 284 249 194 176 180 184 189 191 191 190 188 190 197 201 200 204 209 207 207 208 205 207 210 214 214
134 163 308 13 130 209 75 88 100 113 145 162 243 269 233 243 266 273 275 274 228 168 170 173 176 179 173 176 182 190 193 195 197 200 204 209 208 207 205 208 214 214 213 209
134 129 242 268 268 201 155 159 142 147 210 173 186 262 282 255 264 258 287 323 36 154 171 163 161 158 161 167 182 200 201 204 206 201 202 209 208 205 209 215 217 211 214 215
131 117 74 335 335 7 82 138 140 127 124 157 181 259 316 358 349 327 317 339 20 56 100 119 142 158 171 183 194 210 212 217 212 201 203 208 210 211 216 218 217 210 210 214
120 121 169 203 221 215 224 205 162 135 157 201 219 244 293 320 322 321 328 341 15 41 72 113 172 192 197 200 206 225 229 224 219 212 208 212 216 219 223 221 216 213 211 212
100 154 203 227 227 193 214 218 196 190 189 191 223 224 252 264 270 287 316 8 59 59 62 152 209 219 224 226 226 226 232 225 220 216 216 220 220 218 220 219 217 212 210 216
72 143 160 265 230 207 247 251 218 215 196 207 218 247 252 254 337 342 340 51 101 246 185 231 250 252 249 243 238 238 239 234 221 222 226 224 217 215 214 216 215 211 211 214
88 129 127 245 294 37 270 241 201 185 193 178 206 233 225 227 277 269 265 230 239 255 287 270 261 261 261 258 247 235 237 238 231 233 229 222 215 213 213 213 213 216 216 213
143 120 130 155 80 224 241 257 168 162 213 211 213 221 204 213 256 262 243 228 249 251 262 288 289 289 288 279 275 262 232 209 219 228 225 221 217 217 215 210 213 220 215 203
153 139 126 132 186 266 289 260 169 174 256 241 202 214 227 134 358 314 257 218 248 244 250 256 255 258 274 265 247 232 236 224 226 238 233 219 207 204 202 205 207 208 196 197
68 99 119 132 168 224 246 276 248 134 264 261 201 217 221 115 290 272 279 282 268 242 234 279 321 341 321 289 227 182 243 251 258 258 251 231 196 184 191 198 198 197 188 200
50 54 119 163 213 254 264 294 80 171 242 253 226 225 205 216 232 266 292 283 250 210 43 74 62 348 309 313 121 183 244 259 267 268 243 218 190 184 192 194 194 183 174 175
167 150 174 151 196 251 300 57 178 226 266 246 236 225 218 247 266 281 282 272 243 327 358 32 44 324 321 321 155 198 249 268 287 296 268 261 227 208 201 175 182 177 168 170
194 187 187 192 217 256 276 244 259 248 261 268 249 259 232 256 270 271 269 259 247 224 230 226 196 238 313 274 183 206 264 279 142 72 25 327 310 229 172 168 164 164 164 173
268 156 151 260 270 285 293 294 296 287 270 279 273 261 237 247 255 250 241 237 239 246 253 264 152 117 313 305 260 207 226 220 155 135 122 144 146 154 127 136 150 159 174 181
241 185 175 263 282 311 310 301 300 317 318 321 325 311 246 239 253 230 211 208 207 224 251 240 234 231 273 291 345 70 177 155 142 148 148 134 128 126 114 102 116 176 205 200
216 195 190 230 236 229 268 286 302 305 301 296 303 308 303 256 236 216 208 206 199 203 205 189 238 258 287 311 321 296 228 169 151 151 147 137 132 126 131 120 70 48 72 120
Height
1495 1501 1506 1503 1501 1502 1504 1509 1511 1504 1496 1500 1503 1504 1502 1502 1504 1505 1507 1509 1511 1512 1515 1518 1521 1523 1525 1527 1529 1531 1533 1535 1537 1538 1539 1540 1542 1543 1545 1546 1547 1549 1550 1551
1501 1505 1498 1496 1498 1500 1504 1508 1509 1502 1496 1499 1504 1505 1501 1501 1502 1503 1504 1506 1508 1510 1514 1516 1518 1521 1523 1525 1527 1529 1532 1534 1536 1537 1539 1540 1542 1543 1544 1546 1547 1548 1549 1551
1503 1500 1494 1496 1499 1502 1504 1507 1505 1504 1501 1501 1505 1510 1505 1502 1503 1504 1504 1505 1506 1508 1510 1512 1515 1518 1520 1522 1524 1527 1529 1532 1534 1536 1538 1540 1541 1542 1543 1545 1546 1547 1549 1550
1499 1495 1495 1497 1499 1501 1508 1498 1499 1501 1510 1518 1511 1527 1510 1505 1503 1502 1502 1502 1503 1505 1507 1509 1511 1513 1516 1519 1522 1525 1527 1530 1532 1535 1536 1538 1539 1540 1542 1544 1545 1547 1548 1549
1499 1494 1495 1498 1496 1496 1498 1495 1498 1502 1510 1519 1517 1525 1518 1507 1506 1500 1498 1498 1499 1501 1503 1505 1507 1510 1513 1517 1519 1522 1525 1527 1530 1532 1534 1536 1537 1539 1541 1542 1544 1545 1546 1547
1495 1492 1492 1492 1490 1491 1493 1499 1504 1513 1520 1532 1523 1527 1524 1511 1503 1496 1494 1494 1495 1497 1499 1502 1505 1508 1511 1514 1517 1519 1522 1524 1527 1529 1531 1533 1535 1537 1538 1539 1541 1543 1544 1545
1500 1494 1490 1489 1493 1493 1497 1513 1533 1535 1543 1538 1523 1525 1520 1499 1494 1492 1490 1490 1491 1494 1496 1499 1502 1505 1508 1511 1514 1516 1519 1522 1524 1526 1529 1530 1533 1534 1536 1537 1539 1541 1542 1543
1511 1511 1493 1489 1492 1498 1501 1511 1534 1544 1546 1539 1525 1526 1509 1493 1490 1488 1487 1488 1489 1491 1493 1496 1499 1502 1505 1508 1511 1514 1516 1518 1521 1523 1525 1528 1530 1531 1533 1535 1536 1538 1539 1540
1512 1509 1491 1488 1488 1492 1502 1511 1512 1530 1534 1540 1533 1520 1503 1491 1489 1487 1487 1487 1488 1489 1491 1493 1496 1499 1502 1506 1508 1511 1513 1515 1518 1520 1523 1525 1527 1528 1530 1532 1533 1535 1536 1537
1499 1506 1495 1490 1488 1492 1496 1506 1520 1531 1542 1544 1533 1525 1517 1498 1494 1489 1488 1487 1487 1488 1490 1492 1495 1497 1500 1503 1506 1509 1511 1513 1515 1518 1520 1521 1523 1525 1526 1528 1529 1531 1532 1534
1495 1505 1502 1497 1498 1502 1503 1509 1518 1530 1532 1542 1543 1529 1500 1497 1492 1490 1488 1487 1487 1488 1489 1491 1493 1495 1498 1501 1503 1505 1507 1510 1512 1513 1516 1518 1519 1521 1523 1524 1526 1527 1529 1530
1496 1506 1513 1504 1495 1493 1497 1504 1514 1524 1531 1536 1538 1525 1492 1492 1489 1489 1488 1487 1487 1488 1488 1490 1492 1494 1495 1498 1500 1502 1504 1506 1508 1510 1512 1514 1515 1517 1519 1520 1522 1523 1525 1526
1495 1507 1519 1515 1509 1500 1500 1502 1507 1516 1527 1536 1536 1520 1491 1490 1489 1488 1488 1488 1488 1488 1488 1489 1491 1492 1494 1496 1498 1500 1502 1503 1505 1506 1508 1509 1511 1513 1514 1516 1518 1519 1521 1522
1489 1504 1512 1517 1512 1503 1502 1502 1505 1511 1524 1528 1522 1510 1497 1493 1491 1489 1488 1488 1488 1488 1488 1489 1490 1491 1493 1494 1495 1497 1498 1500 1501 1502 1504 1505 1506 1508 1510 1512 1513 1515 1516 1517
1489 1502 1501 1501 1497 1498 1498 1499 1500 1503 1507 1513 1508 1505 1496 1493 1491 1489 1489 1488 1488 1488 1488 1489 1489 1490 1491 1492 1493 1494 1495 1497 1498 1499 1500 1500 1502 1504 1506 1507 1509 1510 1511 1512
1493 1499 1499 1499 1496 1496 1497 1495 1496 1497 1498 1500 1499 1499 1491 1490 1489 1488 1488 1487 1487 1487 1488 1488 1489 1489 1490 1490 1491 1492 1493 1494 1494 1495 1496 1497 1498 1500 1501 1503 1504 1505 1506 1507
1497 1500 1506 1508 1499 1497 1504 1495 1493 1493 1493 1494 1498 1493 1489 1489 1488 1487 1486 1486 1486 1486 1486 1486 1487 1487 1488 1488 1488 1489 1490 1490 1491 1491 1492 1493 1494 1495 1496 1498 1500 1501 1501 1502
1496 1502 1510 1512 1505 1512 1499 1487 1487 1490 1490 1488 1488 1487 1486 1487 1486 1485 1485 1485 1484 1484 1484 1485 1485 1485 1486 1486 1486 1487 1487 1487 1487 1487 1488 1489 1490 1491 1492 1493 1495 1496 1497 1498
1490 1498 1510 1516 1514 1507 1494 1487 1487 1490 1491 1486 1486 1486 1485 1485 1485 1484 1483 1483 1483 1483 1483 1483 1483 1483 1483 1484 1484 1483 1483 1484 1484 1484 1484 1485 1486 1486 1488 1489 1490 1491 1492 1493
1492 1495 1506 1513 1512 1512 1495 1484 1482 1486 1492 1485 1484 1484 1484 1485 1488 1483 1481 1481 1481 1481 1481 1481 1481 1481 1481 1481 1481 1481 1481 1481 1481 1481 1481 1481 1482 1482 1484 1485 1486 1486 1487 1489
1499 1502 1506 1510 1510 1502 1488 1483 1483 1495 1491 1482 1481 1481 1482 1483 1482 1481 1479 1479 1479 1479 1479 1479 1479 1479 1479 1479 1478 1478 1478 1478 1478 1478 1478 1478 1478 1479 1480 1481 1482 1483 1484 1486
1500 1504 1507 1510 1510 1503 1485 1484 1487 1486 1480 1479 1478 1478 1479 1479 1478 1479 1478 1477 1477 1476 1477 1477 1477 1477 1477 1477 1476 1476 1476 1476 1476 1476 1475 1475 1475 1476 1477 1478 1479 1480 1480 1481
1497 1496 1498 1499 1497 1487 1484 1483 1482 1480 1479 1477 1476 1476 1477 1476 1476 1476 1476 1476 1476 1476 1475 1475 1475 1474 1475 1474 1474 1474 1474 1474 1473 1473 1473 1473 1473 1473 1474 1474 1475 1476 1477 1478
1492 1491 1493 1493 1487 1484 1482 1481 1479 1478 1477 1476 1475 1475 1475 1475 1474 1474 1474 1474 1474 1474 1474 1473 1473 1472 1472 1472 1473 1472 1472 1473 1472 1471 1471 1471 1471 1471 1471 1472 1472 1474 1475 1476
1490 1490 1491 1490 1486 1483 1479 1479 1478 1476 1475 1474 1474 1474 1474 1473 1472 1472 1472 1472 1472 1472 1472 1472 1472 1471 1471 1471 1471 1470 1470 1470 1469 1469 1469 1469 1469 1469 1469 1470 1471 1472 1473 1474
1487 1487 1488 1487 1482 1482 1479 1478 1477 1475 1474 1473 1472 1472 1472 1472 1471 1471 1470 1470 1470 1470 1470 1471 1471 1471 1470 1470 1470 1469 1468 1468 1468 1467 1467 1467 1467 1468 1468 1468 1469 1470 1471 1472